Welcome to the New NWS' Forecast!
Most changes are behind the scenes, but click here for differences you might notice.

Regional Weather Roundup (RWR)

Issued by Gray - Portland, ME (GYX)

                            
000
ASUS41 KGYX 161510
RWRGYX
WEATHER ROUNDUP FOR MAINE AND NEW HAMPSHIRE
NATIONAL WEATHER SERVICE GRAY ME
1000 AM EST FRI NOV 16 2018

MEZ002-005-006-010-012-015-018-020-021-024-026-027-029-161600-
MAINE
  
CITY           SKY/WX    TMP DP  RH WIND       PRES   REMARKS
PORTLAND       SNOW      28  26  92 N14G31    29.60F VSB 1/4 WCI  17  
SANFORD        LGT SNOW  28  26  92 N15G25    29.57F VSB 1   WCI  16  
BAR HARBOR     LGT SNOW  31  30  96 NE12G22   29.63F VSB 3/4          
WISCASSET      SNOW      29  28  96 VRB7G17   29.63F VSB 1/4          
ROCKLAND       LGT RAIN  35  34  96 NE17G29   29.58F FOG              
FRYEBURG       SNOW      26  24  92 N9        29.67F VSB 1/2          
LEWISTONAUBURN LGT SNOW  27  25  93 N15       29.63F VSB 1   WCI  15  
AUGUSTA        LGT SNOW  25  23  92 N17G25    29.67F VSB 3/4 WCI  12  
WATERVILLE     LGT SNOW  26  23  88 MISG      29.65F FOG              
BANGOR         LGT SNOW  25  23  92 N15       29.69F VSB 1   WCI  13  
GREENVILLE       N/A     21  17  84 NE6       29.68F                  
MILLINOCKET    SNOW      21  17  84 NE10      29.81F VSB 1/4 WCI  10  
HOULTON        NOT AVBL                                               
PRESQUE ISLE   LGT SNOW  19  16  86 NE9       29.90F FOG              
FRENCHVILLE    SNOW      17  11  77 E9        29.89F VSB 1/2          
CARIBOU        SNOW      20  15  81 E10       29.90F VSB 1/2 WCI   9  
$$

NHZ002-005-008-009-011-012-014-161600-
NEW HAMPSHIRE
  
CITY           SKY/WX    TMP DP  RH WIND       PRES   REMARKS
PORTSMOUTH     LGT SNOW  30  28  92 N18       29.50F FOG     WCI  18  
ROCHESTER      LGT SNOW  28  26  92 N15G25    29.54F FOG     WCI  16  
NASHUA         LGT SNOW  31  30  96 N13       29.55S FOG              
MANCHESTER     CLOUDY    31  29  92 N14       29.54F FOG              
CONCORD        LGT SNOW  29  26  89 N13       29.59F FOG     WCI  19  
LACONIA        LGT SNOW  28  27  93 NE8       29.61F FOG              
PLYMOUTH       LGT SNOW  31  29  91 CALM      29.64F                  
BERLIN         SNOW      25  22  88 N8        29.68F VSB 1/2          
WHITEFIELD     LGT SNOW  27  22  81 NE13G18   29.66R WCI  16          
JAFFREY        SNOW      27  27 100 VRB6      29.55S VSB 1/2          
KEENE          LGT SNOW  30  27  86 N14       29.60F VSB 3/4 WCI  20  
LEBANON        SNOW      26  21  81 NW5       29.68F VSB 1/2          
MT WASHINGTON  SNOW      14  14 100 E37G48      N/A  VSB 1/16WCI  -9  
$$

VTZ005-007-008-161600-
VERMONT
  
CITY           SKY/WX    TMP DP  RH WIND       PRES   REMARKS
ST JOHNSBURY     N/A     26  24  92 MISG      29.68F                  
MONTPELIER     SNOW      22  22 100 NW3       29.71F VSB 1/2          
BURLINGTON     SNOW      26  23  88 E3        29.72F VSB 1/2          
$$

MAZ007-012-024-CTZ003-RIZ002-NYZ038-NYZ072-161600-
SOUTHERN NEW ENGLAND AND NY
  
CITY           SKY/WX    TMP DP  RH WIND       PRES   REMARKS
BOSTON         LGT RAIN  45  42  89 N24G31    29.41F FOG              
WORCESTER      MIX PCPN  32  32 100 N20G31    29.46R                  
NANTUCKET      LGT RAIN  50  47  89 SW26G40   29.33S FOG              
PROVIDENCE     LGT RAIN  40  40 100 N21       29.37S                  
HARTFORD       PTSUNNY   34  31  88 N18G30    29.50F                  
ALBANY         LGT SNOW  31  26  82 N9        29.69S FOG              
NEW YORK CITY  PTSUNNY   41  35  79 NW14      29.65R                  
$$

ANZ081-ANZ082-ANZ150-NHZ014-MEZ023>029-161600-
COASTAL MARINE OBSERVATIONS
  
STATION/POSITION TIME  TEMP    WIND        PRES    WAVE
                       AIR SEA DIR/SP/G            HT/PER
                 (UTC) (F)     (DEG/KT/KT) (MB)    (FT/S)
MOUNT DESERT ROC 1500   39      60/ 43/ 49  999.2F
MATINICUS ROCK   1400   40      80/ 47/ 53  999.7F
ISLE OF SHOALS   1400   42      40/ 26/ 29  999.0F
CASHES LEDGE BUO 1450   44 50                N/A    20/10
$$

.............KEY..............
   WCI - WIND CHILL
   TC  - TEMPERATURE IN CELSIUS
   VSB - VISIBILITY IN MILES
   HX  - HEAT INDEX
   FAIR- INDICATES FEW OR NO CLOUDS BELOW 12,000 FT, WITH NO 
         SIGNIFICANT WEATHER AND/OR OBSTRUCTIONS TO VISIBILITY.